Showing default

GLOBALSTAR M102, 100326

Orbit data source: Space-Track

GLOBALSTAR M102, 100326 is a payload satellite owned by Globalstar (US) in LEO that was launched on Sun, 16 Aug 2026 UTC launched from the Air Force Eastern Test Range (AFETR). Payload-class satellites include a variety of spacecraft equipped with specific instruments for various scientific and technological missions. These include communications satellites like Starlink; space stations such as the ISS; scientific satellites like the Hubble; Earth observation satellites from companies like Planet Labs, Umbra, and HawkEye 360; GPS; miniature CubeSats for education and research; and military/defense satellites.

Loading next visibility...
Identifier
100326, 2026-185B
Orbit
LEO
Country
Flag of USUS
Related business
Manufacturer
MDARM/RLABLB
Mission
Operational spacecraft
Bus & Motor
C-3, AOCS
Mass
850 kg wet, ~800 kg dry
Launch date (UTC)
2026-08-16 (3 weeks ago)
Launch vehicle
Unknown
Launch site
Air Force Eastern Test Range (AFETR)
Object type
Payload
Rocket body
Debris
Shape & HBR
TRAP CYL + 2 PAN, 7.0 m
Radar Cross Section
Large (>1 m²)

Expand to show TLE details & history
Last TLE update: 15 hours ago

TLE from 15 hours ago
0 GLOBALSTAR M102
1 A0326U 26185B   26251.12229026  .00000241  00000-0  82834-4 0  9999
2 A0326  51.9961 138.8101 0009551 307.7803  52.2288 14.63762466  3379
Epoch: 2026-09-08T02:56Z
TLE epoch observation values (Epoch: 2026-09-08T02:56:05.878Z)
Latitude
-0.00002°
Longitude
107.59236°
Altitude
677.677 km
Speed
7.521 km/s
True Right ascension
09h 15m 14s
True Declination
0° 00' 00"
Sunlit
Object was in daylight at epoch
Visualization orbit readout
Latitude
Unknown
Longitude
Unknown
Altitude
Unknown
Speed
Unknown
Apparent Right ascension
Unknown
Apparent Declination
Unknown
Sunlit
N/A
Visualization observer readout
Local Sidereal Time
10:01:47
Azimuth
Unknown
Elevation
Unknown
Doppler factor
Unknown
Orbital elements
Apogee altitude
688.227 km
Perigee altitude
674.741 km
Semi-major axis
7,059.621 km
Eccentricity
0.00096
Inclination
51.9961°
RAAN
138.8101°
Arg. of periapsis
307.7803°
True anomaly
52.31538°
Mean anomaly
52.2288°
Eccentric anomaly
52.27208°
Mean motion
3.65907 °/min
Orbital period
98.39 mins
BSTAR
0.000082834
Loading maneuver chart data...
Computing Atmospheric mass density...
Loading historical data...
Loading historical data...
Loading historical data...
Loading historical data...
Loading historical data...
Loading historical data...
Loading historical data...

Documentation

Showing up to 5 results
|